COSMOS 2547 (705K)

Last updated on Sat Jul 05 2025 00:03:15 GMT+0000 (Coordinated Universal Time)

1 46805U 20075A 25185.22019753 .00000101 00000+0 00000+0 0 9997 2 46805 64.5978 204.0891 0009181 240.8510 119.1112 2.13100335 36493
UTC large
Height (km)
Speed (km/s)
/
Latitude / Longitude
Inclination (degrees)
Orbital Period (minutes)
Azimuth
Elevation
Range (km)
Doppler Factor

Next 0 passes for location: London (51.5072 / 0.1276)

Sorry there are no passes over London.